This demonstration page uses our WeatherBlox Daily Observations layout. Learn more.

Left ArrowRight Arrow

41.86663, -103.66717

Hourly Observations for October 23, 2018

Temp ( °F °C ) Dew Point ( °F °C ) Humidity (%) Winds ( mph kmh ) Pressure ( in mb ) Visibility ( mi km ) Precip ( " mm )
12:53 am 00:53 Clear 44 6.7 32 0 63 63 ESE 10 17 30.22 1023 10 16 0.00 0.00
1:53 am 01:53 Clear 42 5.6 32 0 68 68 E 9 15 30.23 1024 10 16 0.00 0.00
2:53 am 02:53 Partly Cloudy 42 5.6 33 0.6 71 71 E 7 11 30.22 1024 10 16 0.00 0.00
3:53 am 03:53 Clear 41 5 32 0 70 70 E 8 13 30.20 1023 10 16 0.00 0.00
4:53 am 04:53 Clear 40 4.4 32 0 73 73 E 8 13 30.21 1023 10 16 0.00 0.00
5:53 am 05:53 Mostly Cloudy 40 4.4 32 0 73 73 ESE 10 17 30.23 1024 10 16 0.00 0.00
6:53 am 06:53 Clear 39 3.9 31 -0.6 73 73 ESE 13 20 30.25 1024 10 16 0.00 0.00
7:53 am 07:53 Sunny 41 5 31 -0.6 67 67 ESE 15 24 30.24 1024 10 16 0.00 0.00
8:53 am 08:53 Sunny 45 7.2 32 0 61 61 ESE 14 22 30.25 1025 10 16 0.00 0.00
9:53 am 09:53 Sunny 51 10.6 36 2.2 56 56 ESE 15 24 30.23 1024 10 16 0.00 0.00
10:53 am 10:53 Partly Cloudy 56 13.3 40 4.4 55 55 SE 16 26 30.21 1023 10 16 0.00 0.00
11:53 am 11:53 Mostly Cloudy 57 13.9 45 7.2 64 64 SSE 16 26 30.19 1022 10 16 0.00 0.00
12:53 pm 12:53 Partly Cloudy 60 15.6 46 7.8 60 60 SSE 17 28 30.16 1021 10 16 0.00 0.00
1:53 pm 13:53 Partly Cloudy with Light Rain 62 16.7 46 7.8 56 56 SSE 17 28 30.13 1020 10 16 0.00 0.03
2:53 pm 14:53 Mostly Sunny 64 17.8 47 8.3 54 54 SE 23 37 30.09 1019 10 16 0.00 0.03
3:53 pm 15:53 Mostly Sunny 65 18.3 46 7.8 51 51 SE 17 28 30.08 1019 10 16 0.00 0.03
4:53 pm 16:53 Sunny 64 17.8 47 8.3 54 54 SSE 18 30 30.09 1019 10 16 0.00 0.03
5:53 pm 17:53 Sunny 60 15.6 48 8.9 65 65 SE 12 19 30.08 1019 10 16 0.00 0.03
6:53 pm 18:53 Clear 56 13.3 46 7.8 70 70 ESE 13 20 30.09 1019 10 16 0.00 0.00
7:53 pm 19:53 Clear 54 12.2 46 7.8 75 75 ESE 13 20 30.10 1019 10 16 0.00 0.00
8:53 pm 20:53 Clear 53 11.7 46 7.8 77 77 ESE 12 19 30.09 1019 10 16 0.00 0.00
9:53 pm 21:53 Clear 50 10 46 7.8 86 86 E 10 17 30.09 1019 10 16 0.00 0.00
10:53 pm 22:53 Clear 49 9.4 45 7.2 86 86 ESE 15 24 30.07 1018 10 16 0.00 0.00
11:53 pm 23:53 Clear 48 8.9 46 7.8 93 93 ESE 14 22 30.06 1018 10 16 0.00 0.00

Powered by AerisWeather